Overview Statistics Trail Chart Weather Telemetry Raw packets
 

This is the latest recevied weather packets stored in our database for station/object AJ1L. If no packets are shown the sender has not sent any weather packets the latest 10 day(s).

<< 3 4 5 6 7 8 9 >>
Time Temp. Humidity Pressure Rain* Wind** Luminosity Snow
1788431215 17.78° C 94% 1014.8 hPa 0.51 mm - - -
1788430215 17.78° C 94% 1014.8 hPa 0.76 mm - - -
1788429215 17.22° C 94% 1015 hPa 0.76 mm - - -
1788428215 17.22° C 94% 1015.2 hPa 1.52 mm - - -
1788427215 17.22° C 94% 1015.3 hPa 1.27 mm - - -
1788426215 17.22° C 93% 1015.4 hPa 1.27 mm - - -
1788425215 17.22° C 91% 1015.7 hPa 0.51 mm - - -
1788423215 17.22° C 90% 1016.1 hPa 0 mm - - -
1788422215 17.22° C 89% 1016.3 hPa 0 mm - - -
1788421215 17.22° C 88% 1016.5 hPa 0 mm - - -
1788420215 17.22° C 87% 1016.7 hPa 0 mm - - -
1788418215 17.22° C 87% 1017.2 hPa 0 mm - - -
1788417215 17.22° C 87% 1017.2 hPa 0 mm - - -
1788416215 17.22° C 87% 1017.8 hPa 0 mm - - -
1788415215 17.22° C 87% 1018.3 hPa 0 mm - - -
1788414215 17.22° C 88% 1018.5 hPa 0 mm - - -
1788413215 17.22° C 88% 1018.4 hPa 0 mm - - -
1788412224 16.67° C 89% 1018.9 hPa 0 mm - - -
1788412215 16.67° C 89% 1018.9 hPa 0 mm - - -
1788411215 16.67° C 90% 1018.9 hPa 0 mm - - -
1788410216 16.67° C 90% 1018.8 hPa 0 mm - - -
1788409215 16.67° C 90% 1018.7 hPa 0 mm - - -
1788407215 16.67° C 90% 1018.9 hPa 0 mm - - -
1788406215 16.11° C 90% 1019.2 hPa 0 mm - - -
1788405215 16.11° C 90% 1019.4 hPa 0 mm - - -

* Rain latest hour (hover to see other rain measurements)
** Current wind speed in m/s (hover to see current wind gust speed)